FLOCK 2K-22 (42861 NORAD) Tracking and Keplerian Element Data

This shows tracking and keplerian element data for the satellite.

Feedback or suggestion? Click here.




ElementValue
Catalog42861
NameFLOCK 2K-22
Epoch Orbit3279
Epoch Day45.47061977
Epoch Year2018
RAAN308.2268
Inclination96.9931
Eccentricity0.0010141
Argument of Perigee185.6052
Mean Anonmoly174.5081
Mean Motion15.35623347
Decay Rate7.503E-05
L11 42861U 17042AN 18045.47061977 .00007503 00000-0 21846-3 0 9993
L22 42861 96.9931 308.2268 0010141 185.6052 174.5081 15.35623347 32799

Live tracking and technical data element details for FLOCK 2K-22 (NORAD 42861). FLOCK 2K-22 can be tracked NOW for your location showing map with azimuth and elevation plus other details from your city location.

Track the satellite on the map from your city or location and see movement details for azimuth, elevation, latitude, longitude, range, height, and movement on the map or in text.







IsCatalogInMostPopularTable: catalog: 42861, numindb: 128
Update: records affected: 1



GetName: 42861 FLOCK 2K-22

Hit Count: updated at: Sun, 16 Dec 2018 10:05:23 GMT